Regional Weather Roundup
Issued by NWS San Diego, CA

Home | Current Version | Previous Version | Text Only | Print | Product List | Glossary On
Versions: 1 2 3 4 5 6 7 8 9 10 11 12 13 14 15 16 17 18 19 20 21 22 23 24 25 26 27 28 29 30 31 32 33 34 35 36 37 38 39 40 41 42 43 44 45 46 47 48 49 50
000
ASUS46 KSGX 300811
RWRSGX

SAN DIEGO HOURLY WEATHER ROUNDUP
NATIONAL WEATHER SERVICE SAN DIEGO CA
100 AM PDT SUN AUG 30 2015

NOTE: "FAIR" INDICATES FEW OR NO CLOUDS BELOW 12,000 FEET WITH NO
SIGNIFICANT WEATHER AND/OR OBSTRUCTIONS TO VISIBILITY.

CAZ042-043-060-061-PZZ750-775-300900-

GREATER SAN DIEGO AREA

CITY           SKY/WX    TMP DP  RH WIND       PRES   REMARKS
LINDBERGH FLD  PTCLDY    75  68  78 NW3       29.89R
POINT LOMA       N/A     71  67  88 W10         N/A
NATIONAL CITY    N/A     75  70  83 CALM      29.88S
CHULA VISTA      N/A     72  69  90 CALM      29.80S
IMPERIAL BEACH CLEAR    N/A N/A N/A W3        29.88S
BROWN FIELD    CLEAR     71  67  87 CALM      29.89S
MIRAMAR MCAS   CLEAR     73  63  70 CALM      29.89R
MONTGOMERY FLD CLEAR     73  68  84 CALM      29.89S

$$

NORTH SAN DIEGO COUNTY

CITY           SKY/WX    TMP DP  RH WIND       PRES   REMARKS
CAMP PENDLETON CLEAR     70  64  81 NE5       29.87S
OCEANSIDE AP   CLEAR     71  67  87 CALM      29.86S
OCEANSIDE HBR    N/A     74  71  91 CALM      29.89S
VISTA            N/A     70  64  82 CALM      29.85S
CARLSBAD       MOCLDY    73  70  90 SE3       29.87S
DEL MAR          N/A     71  70  95 CALM      29.90R
FALLBROOK        N/A     71  70  97 CALM      29.86S
ESCONDIDO        N/A     76  66  71 W3        29.88S
SAN MARCOS       N/A     72  66  80 CALM      29.85R
POWAY            N/A     71  62  72 CALM      29.87S

$$

EAST SAN DIEGO COUNTY

CITY           SKY/WX    TMP DP  RH WIND       PRES   REMARKS
RAMONA         CLEAR     70  54  56 E3        29.92S
SANTEE LAKES     N/A     72  63  72 CALM      29.86S
LA MESA          N/A     72  67  86 CALM      29.80S
JAMUL            N/A     71  65  82 CALM      29.85F
DESCANSO N       N/A     67  50  52 CALM      29.73S
CAMPO            N/A     66  49  54 CALM      29.96S

$$

ORANGE COUNTY AND THE LOS ANGELES BASIN

CITY           SKY/WX    TMP DP  RH WIND       PRES   REMARKS
JOHN WAYNE AP  CLEAR     74  69  85 CALM      29.86S
LAKE FOREST FR   N/A     74  58  55 CALM      29.74R
SANTA ANA        N/A     75  67  75 CALM      29.81S
HUNTINGTON BCH   N/A     71  69  94 CALM      29.88S
LOS ALAMITOS   FAIR      72  70  94 CALM      29.86R
FULLERTON      CLEAR     77  66  68 CALM      29.85S
LONG BEACH     CLEAR     77  65  66 CALM      29.86R
L.A. AP        CLEAR     72  67  84 SW7       29.86R
L.A. DOWNTOWN  CLEAR     74  66  76 CALM      29.86R

$$

THE INLAND EMPIRE

CITY           SKY/WX    TMP DP  RH WIND       PRES   REMARKS
CORONA         CLEAR     70  58  65 NW3       29.88S
CHINO          CLEAR     75  60  59 NW3       29.89S
ONTARIO        CLEAR     76  58  53 W3        29.89S
RIVERSIDE AP   CLEAR     77  60  55 CALM      29.88S
MORENO VALLEY    N/A     76  59  56 E2        29.88S
MARCH ARB      CLEAR     74  57  56 CALM      29.91S
HORSETHIEF CYN   N/A     74  48  39 SW2       29.88S
PERRIS           N/A     78  60  53 CALM      29.90S
MENIFEE          N/A     79  61  52 CALM      29.95S
HEMET EAST       N/A     77  51  40 CALM      29.87S
FRENCH VALLEY  FAIR      73  57  56 CALM      29.92S
TEMECULA         N/A     75  61  62 CALM      29.87S

$$

SAN BERNARDINO AND RIVERSIDE COUNTY MOUNTAINS

CITY           SKY/WX    TMP DP  RH WIND       PRES   REMARKS
BIG BEAR AP    CLEAR     55  32  41 CALM      30.25S
ANGELUS OAKS     N/A     62  37  39 CALM      29.76S
PINE COVE        N/A     66  40  38 N3        29.83S

$$

SOUTHERN DESERT INCLUDING THE COACHELLA VALLEY

CITY           SKY/WX    TMP DP  RH WIND       PRES   REMARKS
PALM SPRINGS   CLEAR     96  49  20 W6        29.76S
THOUSAND PALMS   N/A     94  51  23 W9        29.71S
PALM DESERT      N/A     91  57  31 CALM      27.39
THERMAL        CLEAR     95  50  21 N13G21    29.68S
BLYTHE         CLEAR     96  58  27 S10       29.73S HX  95
IMPERIAL AP    CLEAR     89  55  31 W8        29.72R
EL CENTRO NAS  CLEAR     91  50  24 W7        29.74R
YUMA AZ        PTCLDY    92  65  40 NW3       29.75R

$$

UPPER DESERT

CITY           SKY/WX    TMP DP  RH WIND       PRES   REMARKS
VICTORVILLE AP CLEAR     75  45  33 CALM      30.00S
APPLE VALLEY     N/A     69  51  51 CALM      30.04S
PALMDALE       PTCLDY    78  50  37 W12       29.99R
LANCASTER      PTCLDY    78  51  38 W16       29.97S
EDWARDS AFB    PTCLDY    74  47  38 SW7       29.94S
DAGGETT        CLEAR     85  46  25 W16       29.89S
29 PALMS N     CLEAR     86  45  23 NW9       29.95S
NEEDLES        CLEAR     99  37  11 N6        29.76R

$$

REGIONAL REPORTS

CITY           SKY/WX    TMP DP  RH WIND       PRES   REMARKS
SANTA BARBARA  PTCLDY    76  60  57 S5        29.83S
SANDBERG       PTCLDY    68  51  54 N14       30.13R
LAS VEGAS NV   CLEAR     92  37  14 SW7       29.81R
PHOENIX AZ     PTCLDY    86  69  56 E6        29.82S
TIJUANA        CLEAR     70  64  83 CALM      29.91S
ENSENADA NW      N/A     73  32  22 CALM      29.84F

$$

OFFSHORE ISLANDS

CITY           SKY/WX    TMP DP  RH WIND       PRES   REMARKS
CATALINA ARPT  CLEAR     76  54  46 W7        29.95R
SAN NICOLAS IS CLEAR    N/A N/A N/A NW29G40   29.90S

$$

MARINE AND OFFSHORE BUOY REPORTS

STATION/POSITION SKY/WX   TEMP    WIND        PRES    SWELL
                          AIR SEA DIR/SP/G            HT/PER/DIR
                          (F)     (DEG/KT/KT) (MB)    (FT/S/D)
TANNER BANKS               69 70  320/ 17/ 21 1012.8R   3/190/14
S CLEMENTE BASIN           71 72  290/ 14/ 17 1011.4R   3/210/14
SO. S. ROSA ISLA           66 65  310/ 21/ 23 1011.6R   3/14
W. S. BARBARA CH           65 65  320/ 23/ 27 1012.1R   3/230/14
M. S. BARBARA CH           72 69  280/ 19/ 25 1010.6R
S. MONICA BASIN            72 73  290/  8/ 10 1010.8R   3/270/ 6
S PEDRO CHANNEL               73                N/A     2/190/14
DANA POINT                    74                N/A     3/190/13
OCEANSIDE OFFSHR              76                N/A     2/200/13
TORREY PINES OTR              76                N/A     3/200/14
MISSION BAY BUOY              76                N/A     3/200/14
POINT LOMA SOUTH              73                N/A     3/200/13

$$



USA.gov is the U.S. government's official web portal to all federal, state and local government web resources and services.